"Pseudo-MPEC" for P112l8k

Created 2020 Jul 3 22:07:08 UT using Find_Orb

Click here for an explanation of pseudo-MPECs

 
 Astrometry: 
     P112l8k  C2020 06 30cMF$$/?s[OAAstrometry6T5K'5Y[]c)MLFC/!arObPSqIMRxHB-F51
     P112l8k  C2020 06 30dWXFF3Y(pveDHeA1g)]pE4#7*HjSEwq/qIBP+mJkNj291ow':e*0F51
     P112l8k  C2020 06 3053FBXCmZ-e]);BvBGAJ7TH#;)Zg(6V;]RsZF.g1EqhGH5iMCk(F`F51
     P112l8k  C2020 06 301@RGV/b9;6NaD;rC2y1Z!I(ZFMbF3Me-ZfdC(W^+F!`3qKGMJU`JF52
     P112l8k  C2020 06 30)IqpP6$0BS^y8#_^sredacted;`V3M(9OU?S0%$m(Od3?BCAdQ%=F52
     P112l8k  C2020 06 30i\V'0p7CD?\MtU_[^,=gJP,lN'0YaNHC^)-U@QS:ghC`MXyZu@*MF52
     P112l8k  C2020 06 30Q.Tagoii9NL]FQ6`spO0Vtc6I*u)1Lk?g25W!(_M(vN424click-F52
     P112l8k bC2020 06 30\=IFtw0dn9*%?OD-bY=aWEDSsX?ae!%h!Se1q?Y1#^*S]k;p/X2@L01
     P112l8k bC2020 06 30#VMPhl8SG=AIJ`4A%HR]`]6CN+n8=2A6`q$,c1.,WPlELKm$.T;xL01
     P112l8k bC2020 06 30QD)E6G%HBobmMoWhere^#7j4B63nb[rJihI@f,@Sy$OIACvjT5mkL01
     P112l8k  C2020 07 01Y[3pH'2)T\Lv_mbFgS@v)i=@-ZUT%4im^8Npu\-HXFotl6lFViO`F52
     P112l8k  C2020 07 01/tHCOH=F;8DLgY5_^3LNr_I!_/03WSb4VYZK5Lo9vO)5/gH\p(TUF52
     P112l8k  C2020 07 02+0not'L(C:^VNclYb:/7forCDGdF)Z)754G])explanationBd0JF52
     P112l8k  C2020 07 02-JbSK0S^rGm/jk0U89iuQY/R9N'#Rh':,Z@p4$B[L,=5/0$*a]nmF52
     P112l8k  C2020 07 03aB[dt#k5d/4ng1O9q/13D@w#%^`MR:4NORH-w7K#F_q4J!'A08//F51
     P112l8k  C2020 07 033,2lEL?QAS%p_MW\?(`?BW-l25hC'w,:],(jKY1X8\=@mT_v:$rKF51

Station data:
(F51) Pan-STARRS 1, Haleakala  (N20.707235 W156.255910)  US/Hawaii.
   Observers N. Primak, A. Schultz, S. Watters, J. Thiel, T. Goggia. Measurer
   PS1 Science Consortium. 1.8-m Ritchey-Chrétien + CCD.
(F52) Pan-STARRS 2, Haleakala  (N20.707384 W156.255910)  US/Hawaii. 1.8-m
   Ritchey-Chrétien + CCD.
(L01) Višnjan Observatory, Tičan  (N45.290900 E13.749300)  Croatia.
   Observers K. Korlević, E. Pettarin. Measurer E. Pettarin. 1.0-m f/2.9
   reflector + CCD.

Orbital elements:  P112l8k
   Perihelion 2020 Mar 29.117475 +/- 0.136 TT =  2:49:09 (JD 2458937.617475)
Epoch 2020 Jul  3.0 TT = JDT 2459033.5   Earth MOID: 0.0455   AutoNEOCP
M  87.46002225 +/- 0.20             (J2000 ecliptic)
n   0.91215810 +/- 0.000896         Peri.  295.70462 +/- 0.11
a   1.05298609 +/- 0.000689         Node   235.87764 +/- 0.08
e   0.1835619 +/- 0.0012            Incl.    7.59646 +/- 0.046
P   1.08/394.66d           H 24.1   G  0.15   U  8.0  
q 0.85969788 +/- 0.000728    Q 1.24627429 +/- 0.00207
From 16 observations 2020 June 30-July 3; mean residual 0".35
Residuals in arcseconds: 
200630 F51  .07-  .17-    200630 F52  .13+  .16+    200702 F52  .47+  .27-    
200630 F51  .03-  .37-    200630 L01  .95+  .33-    200702 F52  .11-  .20-    
200630 F51  .06-  .07-    200630 L01  .20+  .46+    200703 F51  .16+  .10-    
200630 F52  .36+  .28+    200630 L01  .89-  .41+    200703 F51  .24-  .25+    
200630 F52  .02-  .49-    200701 F52  .17-  .05-    
200630 F52  .29-  .42+    200701 F52  .47-  .09+    

Ephemerides (geocentric):
Date (UTC) HH   RA              Dec         delta   r     elong  mag " sig PA
---- -- -- --  -------------   -----------  ------ ------ -----  --- ---- ---
2020 07 03 22  17 14 12.543   +32 45 03.52  .12205 1.0822 119.6 21.7 .336 117
2020 07 03 23  17 14 15.048   +32 42 52.08  .12220 1.0823 119.6 21.7 .343 117
2020 07 04 00  17 14 17.550   +32 40 40.82  .12234 1.0824 119.6 21.7 .350 118
2020 07 04 01  17 14 20.048   +32 38 29.76  .12248 1.0826 119.7 21.7 .358 119
2020 07 04 02  17 14 22.543   +32 36 18.90  .12262 1.0827 119.7 21.7 .365 119
2020 07 04 03  17 14 25.034   +32 34 08.22  .12276 1.0828 119.7 21.7 .373 120
2020 07 04 04  17 14 27.522   +32 31 57.73  .12290 1.0829 119.7 21.7 .380 120
2020 07 04 05  17 14 30.006   +32 29 47.43  .12304 1.0831 119.8 21.7 .388 121
2020 07 04 06  17 14 32.487   +32 27 37.32  .12319 1.0832 119.8 21.7 .396 121
2020 07 04 07  17 14 34.965   +32 25 27.40  .12333 1.0833 119.8 21.7 .404 122
2020 07 04 08  17 14 37.439   +32 23 17.67  .12347 1.0834 119.8 21.7 .412 122
2020 07 04 09  17 14 39.910   +32 21 08.12  .12361 1.0836 119.9 21.7 .420 123
2020 07 04 10  17 14 42.378   +32 18 58.76  .12375 1.0837 119.9 21.7 .428 123
2020 07 04 11  17 14 44.843   +32 16 49.58  .12389 1.0838 119.9 21.7 .436 123
2020 07 04 12  17 14 47.304   +32 14 40.59  .12404 1.0839 119.9 21.7 .445 124
2020 07 04 13  17 14 49.762   +32 12 31.78  .12418 1.0840 120.0 21.7 .454 124
2020 07 04 14  17 14 52.217   +32 10 23.16  .12432 1.0842 120.0 21.7 .462 125
2020 07 04 15  17 14 54.669   +32 08 14.72  .12446 1.0843 120.0 21.7 .471 125
2020 07 04 16  17 14 57.117   +32 06 06.46  .12460 1.0844 120.0 21.7 .480 126
2020 07 04 17  17 14 59.563   +32 03 58.38  .12475 1.0845 120.0 21.7 .489 126
2020 07 04 18  17 15 02.005   +32 01 50.49  .12489 1.0847 120.1 21.7 .498 126
2020 07 04 19  17 15 04.444   +31 59 42.77  .12503 1.0848 120.1 21.7 .507 127
2020 07 04 20  17 15 06.881   +31 57 35.23  .12517 1.0849 120.1 21.7 .517 127
2020 07 04 21  17 15 09.314   +31 55 27.87  .12531 1.0850 120.1 21.7 .526 128
2020 07 04 22  17 15 11.744   +31 53 20.69  .12546 1.0852 120.2 21.7 .536 128
2020 07 04 23  17 15 14.171   +31 51 13.69  .12560 1.0853 120.2 21.7 .545 128
2020 07 05 00  17 15 16.596   +31 49 06.86  .12574 1.0854 120.2 21.8 .555 129
2020 07 05 01  17 15 19.017   +31 47 00.21  .12588 1.0855 120.2 21.8 .565 129
2020 07 05 02  17 15 21.435   +31 44 53.74  .12602 1.0856 120.2 21.8 .575 130
2020 07 05 03  17 15 23.851   +31 42 47.44  .12617 1.0858 120.3 21.8 .585 130
2020 07 05 04  17 15 26.263   +31 40 41.32  .12631 1.0859 120.3 21.8 .595 130
2020 07 05 05  17 15 28.673   +31 38 35.37  .12645 1.0860 120.3 21.8 .606 131
2020 07 05 06  17 15 31.080   +31 36 29.59  .12659 1.0861 120.3 21.8 .616 131
2020 07 05 07  17 15 33.484   +31 34 23.99  .12674 1.0863 120.4 21.8 .627 131
2020 07 05 08  17 15 35.885   +31 32 18.55  .12688 1.0864 120.4 21.8 .637 132
2020 07 05 09  17 15 38.284   +31 30 13.29  .12702 1.0865 120.4 21.8 .648 132
2020 07 05 10  17 15 40.679   +31 28 08.20  .12717 1.0866 120.4 21.8 .659 132
2020 07 05 11  17 15 43.072   +31 26 03.28  .12731 1.0867 120.4 21.8 .670 133
2020 07 05 12  17 15 45.463   +31 23 58.53  .12745 1.0869 120.5 21.8 .681 133
2020 07 05 13  17 15 47.850   +31 21 53.95  .12759 1.0870 120.5 21.8 .692 133
2020 07 05 14  17 15 50.235   +31 19 49.54  .12774 1.0871 120.5 21.8 .703 133
2020 07 05 15  17 15 52.617   +31 17 45.29  .12788 1.0872 120.5 21.8 .714 134
2020 07 05 16  17 15 54.997   +31 15 41.21  .12802 1.0874 120.5 21.8 .726 134
2020 07 05 17  17 15 57.374   +31 13 37.30  .12817 1.0875 120.6 21.8 .737 134
2020 07 05 18  17 15 59.748   +31 11 33.56  .12831 1.0876 120.6 21.8 .749 135
2020 07 05 19  17 16 02.120   +31 09 29.98  .12845 1.0877 120.6 21.8 .761 135
2020 07 05 20  17 16 04.489   +31 07 26.56  .12860 1.0878 120.6 21.8 .773 135
2020 07 05 21  17 16 06.856   +31 05 23.31  .12874 1.0880 120.6 21.8 .784 135